Location: Unspecified
(0.0000°N, 0.0000°E)
Time: 02:07:19
(UTC+00:00)

Midas 7 - Visible Passes

Search period start: 10 October 2024 00:00
Search period end: 20 October 2024 00:00
Orbit: 3668 x 3734 km, 88.4° (Epoch: 09 October)

Date Brightness Start Highest point End Pass type
(mag) Time Alt. Az. Time Alt. Az. Time Alt. Az.
10 Oct 8.3 00:20:10 10° ENE 00:26:02 12° E 00:31:48 10° ESE visible
10 Oct 6.6 02:52:29 10° N 03:11:53 85° W 03:31:15 10° S visible
11 Oct 7.4 01:18:49 10° NNE 01:36:05 40° E 01:52:58 10° SSE visible
11 Oct 6.9 04:05:06 10° NNW 04:22:09 41° W 04:39:28 10° SSW visible
12 Oct 6.7 02:26:56 10° N 02:46:22 84° E 03:05:41 10° S visible
12 Oct 7.6 05:25:40 10° WNW 05:32:11 12° W 05:38:47 10° WSW visible
13 Oct 7.6 00:54:34 10° NE 01:10:36 32° E 01:26:13 10° SSE visible
13 Oct 6.8 03:38:41 10° NNW 03:56:40 49° W 04:14:50 10° SSW visible
14 Oct 6.8 02:01:33 10° NNE 02:20:51 72° E 02:39:56 10° S visible
14 Oct 7.4 04:55:51 10° NW 05:06:46 18° W 05:17:55 10° WSW visible
15 Oct 7.8 00:30:49 10° NE 00:45:07 25° E 00:59:03 10° SE visible
15 Oct 6.7 03:12:32 10° N 03:31:09 59° W 03:49:56 10° SSW visible
16 Oct 6.9 01:36:23 10° NNE 01:55:20 61° E 02:13:59 10° S visible
16 Oct 7.3 04:27:49 10° NW 04:41:20 24° W 04:55:07 10° SW visible
17 Oct 8.0 00:07:49 10° NE 00:19:39 19° E 00:31:12 10° SE visible
17 Oct 6.6 02:46:33 10° N 03:05:39 70° W 03:24:47 10° SSW visible
18 Oct 7.1 01:11:25 10° NNE 01:29:49 51° E 01:47:52 10° SSE visible
18 Oct 7.1 04:00:32 10° NNW 04:15:52 31° W 04:31:30 10° SW visible
18 Oct 8.1 23:46:19 10° ENE 23:54:13 14° E 00:01:58 10° ESE visible
19 Oct 6.6 02:20:46 10° N 02:40:08 81° W 02:59:26 10° S visible
